TimeEDT,TemperatureF,Dew PointF,Humidity,Sea Level PressureIn,VisibilityMPH,Wind Direction,Wind SpeedMPH,Gust SpeedMPH,PrecipitationIn,Events,Conditions,WindDirDegrees,DateUTC
12:00 AM,59.0,53.6,82,30.12,10.0,Calm,Calm,-,N/A,,Clear,0,2012-10-24 04:00:00
12:21 AM,55.4,53.6,94,30.12,10.0,Calm,Calm,-,N/A,,Clear,0,2012-10-24 04:21:00
12:42 AM,55.4,53.6,94,30.12,10.0,Calm,Calm,-,N/A,,Clear,0,2012-10-24 04:42:00
1:04 AM,57.2,53.6,88,30.12,10.0,Calm,Calm,-,N/A,,Clear,0,2012-10-24 05:04:00
1:25 AM,55.4,53.6,94,30.12,10.0,Calm,Calm,-,N/A,,Clear,0,2012-10-24 05:25:00
2:08 AM,55.4,53.6,94,30.12,10.0,Calm,Calm,-,N/A,,Clear,0,2012-10-24 06:08:00
2:29 AM,55.4,53.6,94,30.13,10.0,Calm,Calm,-,N/A,,Clear,0,2012-10-24 06:29:00
2:50 AM,55.4,53.6,94,30.13,10.0,Calm,Calm,-,N/A,,Clear,0,2012-10-24 06:50:00
3:12 AM,53.6,53.6,100,30.13,10.0,Calm,Calm,-,N/A,,Clear,0,2012-10-24 07:12:00
3:33 AM,53.6,53.6,100,30.13,10.0,Calm,Calm,-,N/A,,Clear,0,2012-10-24 07:33:00
3:54 AM,53.6,53.6,100,30.13,10.0,Calm,Calm,-,N/A,,Clear,0,2012-10-24 07:54:00
4:15 AM,53.6,53.6,100,30.13,10.0,Calm,Calm,-,N/A,,Clear,0,2012-10-24 08:15:00
4:37 AM,53.6,53.6,100,30.13,10.0,Calm,Calm,-,N/A,,Clear,0,2012-10-24 08:37:00
4:58 AM,53.6,53.6,100,30.14,10.0,Calm,Calm,-,N/A,,Clear,0,2012-10-24 08:58:00
5:19 AM,53.6,53.6,100,30.14,10.0,Calm,Calm,-,N/A,,Clear,0,2012-10-24 09:19:00
5:41 AM,53.6,53.6,100,30.15,10.0,Calm,Calm,-,N/A,,Clear,0,2012-10-24 09:41:00
6:02 AM,53.6,53.6,100,30.15,10.0,Calm,Calm,-,N/A,,Clear,0,2012-10-24 10:02:00
6:23 AM,53.6,53.6,100,30.15,10.0,Calm,Calm,-,N/A,,Clear,0,2012-10-24 10:23:00
6:45 AM,53.6,53.6,100,30.16,10.0,ENE,3.5,-,N/A,,Clear,60,2012-10-24 10:45:00
7:06 AM,53.6,53.6,100,30.16,10.0,Calm,Calm,-,N/A,,Clear,0,2012-10-24 11:06:00
7:27 AM,53.6,53.6,100,30.17,10.0,Calm,Calm,-,N/A,,Clear,0,2012-10-24 11:27:00
8:31 AM,53.6,53.6,100,30.18,10.0,Calm,Calm,-,N/A,,Scattered Clouds,0,2012-10-24 12:31:00
8:52 AM,55.4,53.6,94,30.19,10.0,SSE,4.6,-,N/A,,Scattered Clouds,150,2012-10-24 12:52:00
9:14 AM,55.4,53.6,94,30.19,10.0,Calm,Calm,-,N/A,,Scattered Clouds,0,2012-10-24 13:14:00
9:56 AM,59.0,55.4,88,30.19,10.0,Calm,Calm,-,N/A,,Scattered Clouds,0,2012-10-24 13:56:00
10:17 AM,59.0,55.4,88,30.20,10.0,Calm,Calm,-,N/A,,Scattered Clouds,0,2012-10-24 14:17:00
10:38 AM,59.0,55.4,88,30.19,10.0,Calm,Calm,-,N/A,,Scattered Clouds,0,2012-10-24 14:38:00
11:00 AM,60.8,55.4,82,30.19,10.0,Calm,Calm,-,N/A,,Scattered Clouds,0,2012-10-24 15:00:00
11:21 AM,62.6,55.4,77,30.19,10.0,Calm,Calm,-,N/A,,Clear,0,2012-10-24 15:21:00
11:42 AM,66.2,55.4,68,30.19,10.0,Calm,Calm,-,N/A,,Clear,0,2012-10-24 15:42:00
12:03 PM,69.8,55.4,60,30.18,10.0,SSE,3.5,-,N/A,,Clear,150,2012-10-24 16:03:00
12:25 PM,69.8,55.4,60,30.17,10.0,Calm,Calm,-,N/A,,Clear,0,2012-10-24 16:25:00
12:46 PM,71.6,55.4,57,30.16,10.0,Calm,Calm,-,N/A,,Clear,0,2012-10-24 16:46:00
1:07 PM,73.4,55.4,53,30.15,10.0,Calm,Calm,-,N/A,,Clear,0,2012-10-24 17:07:00
1:28 PM,75.2,53.6,47,30.14,10.0,ESE,4.6,-,N/A,,Scattered Clouds,120,2012-10-24 17:28:00
1:50 PM,77.0,53.6,44,30.13,10.0,West,9.2,-,N/A,,Clear,260,2012-10-24 17:50:00
2:11 PM,77.0,51.8,41,30.12,10.0,WNW,5.8,-,N/A,,Scattered Clouds,290,2012-10-24 18:11:00
2:32 PM,77.0,51.8,41,30.11,10.0,West,5.8,-,N/A,,Mostly Cloudy,280,2012-10-24 18:32:00
2:53 PM,78.8,51.8,39,30.11,10.0,WNW,9.2,-,N/A,,Mostly Cloudy,290,2012-10-24 18:53:00
3:15 PM,78.8,51.8,39,30.10,10.0,NW,6.9,-,N/A,,Scattered Clouds,310,2012-10-24 19:15:00
3:36 PM,80.6,53.6,39,30.10,10.0,Calm,Calm,-,N/A,,Clear,0,2012-10-24 19:36:00
3:57 PM,78.8,53.6,42,30.10,10.0,WSW,3.5,-,N/A,,Clear,240,2012-10-24 19:57:00
4:18 PM,77.0,51.8,41,30.10,10.0,Calm,Calm,-,N/A,,Clear,0,2012-10-24 20:18:00
4:40 PM,77.0,51.8,41,30.10,10.0,WNW,3.5,-,N/A,,Clear,300,2012-10-24 20:40:00
5:01 PM,77.0,51.8,41,30.11,10.0,Calm,Calm,-,N/A,,Clear,0,2012-10-24 21:01:00
5:22 PM,78.8,51.8,39,30.11,10.0,Calm,Calm,-,N/A,,Clear,0,2012-10-24 21:22:00
5:43 PM,77.0,51.8,41,30.11,10.0,Calm,Calm,-,N/A,,Clear,0,2012-10-24 21:43:00
6:05 PM,75.2,51.8,44,30.11,10.0,Calm,Calm,-,N/A,,Clear,0,2012-10-24 22:05:00
6:26 PM,73.4,53.6,50,30.11,10.0,Calm,Calm,-,N/A,,Clear,0,2012-10-24 22:26:00
6:47 PM,71.6,53.6,53,30.12,10.0,Calm,Calm,-,N/A,,Clear,0,2012-10-24 22:47:00
7:08 PM,69.8,53.6,56,30.13,10.0,Calm,Calm,-,N/A,,Clear,0,2012-10-24 23:08:00
7:30 PM,69.8,53.6,56,30.13,10.0,Calm,Calm,-,N/A,,Clear,0,2012-10-24 23:30:00
7:51 PM,68.0,53.6,60,30.14,10.0,Calm,Calm,-,N/A,,Clear,0,2012-10-24 23:51:00
8:12 PM,64.4,53.6,68,30.14,10.0,NNW,3.5,-,N/A,,Clear,340,2012-10-25 00:12:00
8:33 PM,64.4,53.6,68,30.15,10.0,Calm,Calm,-,N/A,,Clear,0,2012-10-25 00:33:00
8:55 PM,60.8,53.6,77,30.15,10.0,Calm,Calm,-,N/A,,Clear,0,2012-10-25 00:55:00
9:16 PM,62.6,53.6,72,30.15,10.0,Calm,Calm,-,N/A,,Clear,0,2012-10-25 01:16:00
9:37 PM,60.8,53.6,77,30.15,10.0,Calm,Calm,-,N/A,,Clear,0,2012-10-25 01:37:00
9:59 PM,59.0,53.6,82,30.16,10.0,Calm,Calm,-,N/A,,Clear,0,2012-10-25 01:59:00
10:20 PM,60.8,53.6,77,30.16,10.0,North,4.6,-,N/A,,Clear,360,2012-10-25 02:20:00
10:41 PM,60.8,53.6,77,30.17,10.0,North,4.6,-,N/A,,Mostly Cloudy,360,2012-10-25 02:41:00
11:02 PM,60.8,53.6,77,30.17,10.0,Calm,Calm,-,N/A,,Mostly Cloudy,0,2012-10-25 03:02:00
11:24 PM,55.4,53.6,94,30.17,10.0,Calm,Calm,-,N/A,,Scattered Clouds,0,2012-10-25 03:24:00
11:45 PM,57.2,53.6,88,30.17,10.0,Calm,Calm,-,N/A,,Clear,0,2012-10-25 03:45:00